Date and Time,30m Wind Direction,30m Wind Speed,30m Wind Vert,30m Quality,40m Wind Direction,40m Wind Speed,40m Wind Vert,40m Quality,50m Wind Direction,50m Wind Speed,50m Wind Vert,50m Quality,60m Wind Direction,60m Wind Speed,60m Wind Vert,60m Quality,80m Wind Direction,80m Wind Speed,80m Wind Vert,80m Quality,100m Wind Direction,100m Wind Speed,100m Wind Vert,100m Quality,120m Wind Direction,120m Wind Speed,120m Wind Vert,120m Quality,140m Wind Direction,140m Wind Speed,140m Wind Vert,140m Quality,160m Wind Direction,160m Wind Speed,160m Wind Vert,160m Quality,180m Wind Direction,180m Wind Speed,180m Wind Vert,180m Quality,200m Wind Direction,200m Wind Speed,200m Wind Vert,200m Quality,30m Wind Turbulence,40m Wind Turbulence,50m Wind Turbulence,60m Wind Turbulence,80m Wind Turbulence,100m Wind Turbulence,120m Wind Turbulence,140m Wind Turbulence,160m Wind Turbulence,180m Wind Turbulence,200m Wind Turbulence
7/2/2016 12:00 AM,311.20,4.09,-0.03,99,306.40,4.38,-0.07,99,299.90,5.07,-0.07,99,290.20,4.58,-0.13,98,290.20,6.45,-0.22,96,261.40,5.34,-0.35,94,254.40,6.20,-0.50,92,287.60,6.99,-0.42,92,290.10,6.14,-0.63,93,269.90,6.74,-0.72,93,265.80,5.73,-0.65,93,0.09,0.12,0.09,0.33,0.19,0.46,0.57,0.36,0.46,0.44,0.47
7/2/2016 12:10 AM,279.80,5.25,0.09,99,280.10,5.61,0.09,99,280.00,5.92,0.10,99,277.50,6.64,0.05,98,276.40,6.55,0.02,98,277.50,7.00,-0.10,98,266.30,6.91,-0.10,98,270.60,6.16,0.03,99,261.90,7.26,0.12,99,249.80,7.25,0.10,98,260.30,7.65,0.05,98,0.09,0.09,0.09,0.15,0.20,0.22,0.29,0.24,0.16,0.21,0.27
7/2/2016 12:20 AM,254.60,4.71,-0.97,98,237.10,5.01,-1.34,98,257.30,6.65,-1.34,98,268.50,6.64,-2.08,99,284.50,6.69,-3.10,95,267.20,5.97,-1.08,94,267.90,6.91,-0.34,95,243.50,7.09,-0.50,95,240.40,8.25,-0.82,94,241.90,7.92,-0.96,94,237.70,7.83,-1.10,93,0.54,0.63,0.45,0.47,0.59,0.48,0.31,0.31,0.41,0.45,0.50
7/2/2016 12:30 AM,281.30,4.61,-5.24,99,260.20,3.58,-4.75,99,272.60,5.86,-3.78,99,269.60,4.31,-4.73,99,273.50,4.13,-6.44,98,261.50,4.74,-6.42,97,268.50,6.37,-5.69,96,242.10,9.97,-4.49,94,232.50,9.48,-4.16,92,267.10,12.00,-4.78,89,253.80,14.33,-4.28,88,0.69,0.92,0.61,0.76,0.66,0.59,0.52,0.40,0.57,0.44,0.36
7/2/2016 12:40 AM,256.50,3.13,-1.65,97,244.20,3.56,-1.95,97,276.00,3.19,-3.89,97,296.80,5.39,-5.14,98,259.50,4.07,-2.72,97,271.40,4.00,-1.07,97,255.80,5.49,-0.47,95,259.20,6.46,-0.47,92,256.80,6.58,-0.55,89,241.10,9.14,-0.61,59,223.60,9.12,-0.69,25,0.88,0.82,0.86,0.42,0.81,0.67,0.39,0.40,0.42,0.41,0.34
7/2/2016 12:50 AM,259.90,2.62,-0.12,96,257.90,0.91,-0.41,93,253.50,3.57,-0.24,95,272.40,2.69,-0.16,96,252.00,3.76,-0.14,96,246.90,4.94,-0.16,98,244.10,5.81,-0.32,97,244.90,5.84,-0.70,95,245.30,7.05,-0.60,95,242.10,7.39,-0.66,93,244.10,6.12,-0.95,89,0.36,1.62,0.33,0.26,0.22,0.19,0.30,0.43,0.34,0.32,0.48
7/2/2016 1:00 AM,256.20,4.65,-6.14,99,260.20,3.42,-6.82,99,253.50,4.09,-6.56,99,230.90,6.02,-5.30,98,229.80,8.45,-4.21,98,241.70,10.21,-4.84,98,240.70,8.77,-5.70,97,240.90,5.36,-6.72,96,242.60,6.57,-7.05,94,236.10,5.86,-6.98,92,234.20,8.45,-6.88,88,0.54,0.54,0.57,0.51,0.43,0.31,0.36,0.49,0.32,0.32,0.33
7/2/2016 1:10 AM,281.50,3.20,-2.46,96,278.80,3.88,-2.86,98,274.10,3.59,-2.91,98,277.20,3.92,-2.80,98,243.40,5.44,-2.20,97,230.80,5.54,-1.20,97,256.00,7.16,-0.85,97,265.80,5.02,-1.88,91,322.00,3.07,-3.34,62,16.00,5.59,-2.73,33,161.60,10.12,-2.97,16,1.01,0.83,0.89,0.81,0.61,0.49,0.35,0.59,0.88,0.68,0.52
7/2/2016 1:20 AM,214.70,2.22,-3.06,97,225.60,4.84,-3.91,97,228.30,6.44,-3.57,98,250.80,7.39,-3.15,98,248.50,5.62,-3.45,99,262.50,7.33,-3.33,99,256.30,7.33,-3.36,97,232.30,4.98,-3.45,96,226.20,5.66,-2.71,95,230.20,8.24,-2.16,93,244.60,8.47,-1.90,93,1.57,0.63,0.51,0.44,0.59,0.49,0.44,0.60,0.53,0.39,0.48
7/2/2016 1:30 AM,241.20,2.19,-0.32,94,278.60,3.96,-0.78,96,257.40,4.07,-0.63,96,243.10,4.85,-0.48,96,252.30,5.83,-0.40,97,243.00,5.55,-0.11,97,250.20,5.48,-0.32,96,240.70,5.79,0.00,96,241.30,6.50,0.03,96,220.90,6.16,-0.07,93,221.10,7.36,0.01,93,0.57,0.49,0.44,0.31,0.29,0.20,0.38,0.19,0.18,0.36,0.32
7/2/2016 1:40 AM,263.70,2.20,-0.04,95,264.40,2.82,-0.04,95,255.80,3.67,-0.12,97,249.60,3.99,-0.17,98,256.90,5.28,-0.41,99,243.40,5.10,-0.44,98,247.10,6.56,-0.46,99,241.70,6.58,-0.53,96,237.10,5.97,-0.92,95,249.40,8.28,-1.23,94,247.80,6.94,-1.21,93,0.19,0.15,0.09,0.07,0.24,0.30,0.18,0.30,0.33,0.30,0.35
7/2/2016 1:50 AM,251.90,3.53,-0.01,98,245.00,4.26,-0.03,98,245.60,4.47,-0.02,99,244.80,5.03,-0.06,99,237.80,5.72,-0.05,99,243.50,6.66,-0.27,99,244.80,7.33,-0.29,97,262.60,8.91,-0.98,93,241.00,9.57,-1.31,87,253.10,11.24,-1.90,77,244.20,8.06,-2.08,70,0.10,0.06,0.06,0.07,0.05,0.21,0.25,0.28,0.37,0.36,0.35
7/2/2016 2:00 AM,241.80,2.91,-0.09,98,243.50,3.88,-0.04,98,231.70,4.45,0.03,99,233.20,5.19,0.02,99,243.80,6.72,-0.15,99,250.60,7.26,-0.41,93,260.40,8.62,-0.71,93,264.10,10.12,-0.97,92,250.10,5.97,-0.95,89,264.10,11.50,-1.76,76,263.20,6.19,-1.47,77,0.14,0.08,0.07,0.05,0.13,0.36,0.31,0.33,0.49,0.41,0.79
7/2/2016 2:10 AM,204.40,3.95,-0.05,96,229.00,3.18,-0.14,96,258.60,5.91,-0.58,96,230.90,4.48,-0.19,96,228.60,5.10,-0.13,97,249.70,6.66,-0.45,96,255.60,8.83,-0.75,97,261.60,10.95,-1.21,93,284.60,21.95,-3.07,78,289.70,14.54,-5.30,27,287.60,11.29,-4.95,36,0.11,0.29,0.21,0.27,0.26,0.26,0.20,0.30,0.17,0.25,0.41
7/2/2016 2:20 AM,190.90,4.27,-0.05,98,194.80,4.49,-0.06,97,195.40,4.72,-0.02,98,200.10,4.86,-0.04,97,218.30,5.16,-0.10,97,222.10,5.97,-0.10,98,224.20,6.42,-0.15,99,224.10,7.46,-0.20,96,228.30,8.06,-0.27,93,223.90,10.25,-0.50,88,203.20,6.02,-1.04,84,0.08,0.07,0.06,0.07,0.06,0.05,0.14,0.16,0.25,0.21,0.43
7/2/2016 2:30 AM,193.90,4.38,-0.07,96,193.00,4.40,-0.02,96,206.40,3.94,-0.10,96,218.20,4.26,-0.12,96,227.30,5.51,-0.22,96,219.80,6.27,-0.06,98,233.00,7.26,-0.23,99,239.80,8.72,-0.36,98,242.60,8.85,-0.45,94,249.00,9.66,-0.81,93,249.50,9.70,-0.86,93,0.08,0.07,0.11,0.30,0.19,0.09,0.15,0.14,0.25,0.27,0.31
7/2/2016 2:40 AM,186.20,5.59,0.00,98,189.20,6.04,-0.06,98,189.50,6.06,-0.10,98,195.30,5.76,-0.15,97,191.60,6.58,-0.13,96,224.80,7.21,-0.50,94,209.50,7.46,-0.11,96,221.90,8.14,-0.26,95,227.40,8.54,-0.29,94,231.70,9.34,-0.65,91,246.30,9.68,-0.90,76,0.06,0.05,0.10,0.30,0.20,0.26,0.17,0.17,0.21,0.30,0.43
7/2/2016 2:50 AM,188.60,6.09,-0.05,99,191.00,6.84,-0.01,98,190.20,7.39,-0.03,98,190.20,8.35,-0.02,98,206.60,8.24,-0.46,99,211.20,7.55,-0.48,96,232.30,7.15,-0.91,96,240.70,9.29,-0.94,94,260.90,9.80,-1.68,93,271.20,12.57,-2.13,87,280.50,13.76,-2.79,84,0.07,0.05,0.05,0.04,0.26,0.34,0.47,0.27,0.42,0.28,0.41
7/2/2016 3:00 AM,185.20,5.76,-0.03,99,189.00,6.70,-0.03,98,189.70,7.37,-0.02,99,193.30,8.11,-0.04,99,230.90,7.93,-0.87,94,238.50,8.94,-1.14,89,265.50,15.51,-2.56,76,252.70,8.94,-2.21,73,262.50,15.73,-2.90,88,269.10,11.36,-3.06,75,269.30,18.29,-4.87,62,0.07,0.05,0.04,0.04,0.37,0.41,0.27,0.70,0.34,0.43,0.34
7/2/2016 3:10 AM,185.20,5.26,-0.05,98,185.10,5.89,-0.07,99,184.30,6.83,-0.08,99,184.80,7.13,-0.06,99,187.20,8.12,-0.06,98,194.50,7.60,-0.09,94,206.20,7.36,-0.28,77,198.00,6.16,-0.33,91,211.70,6.09,-0.45,81,218.30,6.34,-0.39,87,237.30,6.11,-0.72,36,0.07,0.06,0.04,0.04,0.05,0.16,0.31,0.45,0.64,0.59,0.55
7/2/2016 3:20 AM,191.10,4.50,-0.08,98,185.50,5.41,-0.09,98,188.40,5.88,-0.13,98,185.20,6.70,-0.10,98,195.00,7.24,-0.23,97,196.30,7.30,-0.23,88,210.70,6.87,-0.38,79,213.70,6.96,-0.32,90,224.00,6.91,-0.45,60,228.40,8.70,-0.71,50,222.80,9.05,-0.75,29,0.07,0.06,0.05,0.04,0.19,0.20,0.30,0.28,0.40,0.32,0.32
7/2/2016 3:30 AM,181.90,3.83,-0.08,97,180.70,4.45,-0.06,99,180.90,5.10,-0.08,98,183.80,5.44,-0.09,98,182.80,6.13,-0.07,98,185.00,6.14,-0.16,95,204.70,6.02,-0.23,95,209.00,6.93,-0.51,95,210.30,5.49,-0.36,95,226.70,6.35,-0.37,94,230.70,7.46,-0.31,94,0.10,0.09,0.07,0.07,0.14,0.34,0.26,0.40,0.81,0.34,0.37
7/2/2016 3:40 AM,185.30,3.07,0.00,98,179.80,4.07,0.00,98,181.10,4.40,0.02,99,181.10,4.77,0.02,98,188.40,5.72,-0.01,99,187.20,6.22,0.03,99,200.70,6.09,-0.16,95,246.30,7.39,-0.65,89,251.80,8.10,-0.98,90,244.00,7.22,-0.65,90,255.30,7.46,-0.52,89,0.12,0.09,0.12,0.06,0.10,0.05,0.26,0.26,0.29,0.28,0.21
7/2/2016 3:50 AM,187.60,4.36,0.03,98,185.30,5.07,0.00,98,190.20,5.33,-0.01,99,188.80,6.21,0.03,98,191.70,6.71,0.01,98,196.00,7.18,-0.02,97,219.20,7.11,-0.39,94,220.50,7.12,-0.66,92,228.60,6.65,-0.71,93,239.10,7.24,-1.16,92,237.90,7.41,-1.16,91,0.09,0.06,0.07,0.05,0.06,0.09,0.21,0.31,0.44,0.33,0.51
7/2/2016 4:00 AM,191.60,4.47,-0.04,98,196.10,5.20,-0.06,98,194.60,5.79,-0.09,97,197.70,6.24,-0.08,98,200.10,7.29,-0.11,98,209.80,7.46,-0.59,95,241.30,8.41,-2.09,89,264.90,8.66,-2.92,82,243.80,12.78,-4.32,74,287.00,4.76,-4.22,70,229.80,8.61,-5.04,76,0.09,0.07,0.06,0.06,0.07,0.34,0.71,0.50,0.41,1.32,0.36
7/2/2016 4:10 AM,185.80,5.05,-0.05,99,187.30,5.44,-0.02,98,187.40,6.18,-0.04,99,192.60,6.32,-0.09,99,198.90,7.17,-0.09,97,231.30,7.67,-0.68,90,245.20,12.27,-2.50,84,219.20,12.93,-2.66,68,242.00,9.40,-4.71,55,227.10,11.95,-4.74,46,224.40,12.45,-5.46,39,0.08,0.06,0.05,0.06,0.06,0.31,0.30,0.29,0.37,0.33,0.23
7/2/2016 4:20 AM,185.20,5.56,-0.12,98,190.20,6.28,-0.10,99,192.10,6.94,-0.09,98,192.40,7.16,-0.08,98,196.60,7.43,-0.03,98,208.90,7.34,-0.16,97,214.50,6.78,-0.25,94,235.40,8.20,-0.92,71,245.40,8.61,-0.88,55,251.50,5.04,-1.33,48,248.90,5.14,-0.95,53,0.08,0.05,0.05,0.05,0.06,0.10,0.18,0.33,0.39,0.43,0.77
7/2/2016 4:30 AM,202.20,4.80,-0.10,98,201.20,5.57,-0.10,97,202.60,5.82,-0.06,98,206.10,6.08,-0.09,98,212.10,6.87,-0.16,98,210.50,7.28,-0.14,98,222.50,6.94,-0.27,97,229.30,7.00,-0.46,94,220.00,5.92,-0.87,90,228.10,6.31,-0.70,81,225.40,3.33,-1.37,45,0.09,0.07,0.07,0.06,0.05,0.08,0.23,0.29,0.66,0.44,1.87
7/2/2016 4:40 AM,208.40,4.56,0.02,98,209.80,4.94,-0.04,97,208.90,5.18,-0.04,98,208.10,5.68,-0.03,97,218.80,6.13,-0.14,98,220.90,6.34,-0.08,98,232.90,6.51,-0.27,98,232.50,6.96,-0.26,98,227.60,6.16,-0.16,97,243.20,7.20,-0.57,95,239.60,7.21,-0.68,92,0.09,0.08,0.07,0.07,0.10,0.12,0.22,0.22,0.25,0.34,0.39
7/2/2016 4:50 AM,218.00,4.30,0.02,97,230.70,4.88,-0.08,98,222.00,5.17,-0.02,97,221.90,5.40,-0.05,98,227.30,5.77,-0.09,99,228.10,5.99,-0.09,98,228.40,6.21,-0.15,98,240.50,6.10,-0.23,98,238.00,6.27,-0.19,97,249.30,7.05,-0.37,97,255.70,7.04,-0.64,96,0.09,0.12,0.06,0.09,0.09,0.11,0.12,0.20,0.25,0.22,0.35
7/2/2016 5:00 AM,221.40,4.35,-0.02,98,233.80,4.20,-0.05,97,232.40,4.66,-0.05,97,237.70,5.44,-0.17,97,232.00,5.76,-0.31,97,247.40,7.28,-0.70,97,234.20,6.81,-0.80,96,254.20,8.75,-1.35,95,212.10,8.62,-1.76,93,241.80,7.90,-1.73,92,218.10,6.97,-2.06,92,0.10,0.17,0.22,0.26,0.37,0.36,0.48,0.42,0.42,0.46,0.65
7/2/2016 5:10 AM,224.30,4.29,0.04,98,230.10,4.37,0.01,98,240.60,5.09,-0.08,97,253.60,7.20,-0.47,95,247.70,9.10,-0.92,91,240.60,11.68,-1.90,85,237.20,13.09,-2.51,69,226.40,11.95,-3.13,72,306.80,8.06,-4.82,49,227.70,7.41,-4.82,41,238.10,7.22,-5.90,36,0.09,0.09,0.17,0.27,0.29,0.45,0.36,0.38,1.54,0.81,0.33
7/2/2016 5:20 AM,213.10,5.42,-0.03,97,215.50,5.69,-0.04,98,216.00,5.96,-0.02,98,220.50,6.26,-0.10,97,226.10,7.20,-0.32,97,236.60,7.03,-0.33,95,233.90,7.45,-0.51,94,228.60,5.90,-0.58,93,231.00,6.47,-0.96,90,220.40,7.62,-0.68,90,235.20,7.07,-0.93,85,0.08,0.08,0.08,0.11,0.20,0.21,0.23,0.37,0.42,0.32,0.52
7/2/2016 5:30 AM,218.60,6.54,-0.05,98,216.60,7.13,-0.06,99,218.90,7.46,-0.03,98,220.30,7.67,-0.09,98,217.70,7.76,-0.14,98,217.90,8.15,-0.25,97,223.20,7.60,-0.12,97,221.00,7.21,-0.23,96,238.50,7.16,-0.49,94,240.10,5.97,-0.84,88,205.50,13.00,-2.46,58,0.07,0.06,0.05,0.05,0.19,0.21,0.18,0.29,0.37,0.49,0.34
7/2/2016 5:40 AM,225.60,5.26,-0.01,97,218.90,5.59,0.04,98,214.80,6.14,0.02,98,220.90,6.53,-0.05,98,219.40,7.19,-0.11,98,220.00,7.90,-0.18,97,222.50,6.69,-0.19,97,226.80,7.85,-0.44,95,224.30,6.42,-0.46,91,210.20,3.36,-1.30,86,174.80,7.63,-1.88,44,0.08,0.08,0.08,0.06,0.07,0.19,0.26,0.26,0.48,0.89,0.80
7/2/2016 5:50 AM,222.00,4.31,0.00,97,228.70,4.38,0.00,97,225.70,5.03,-0.02,98,223.10,5.55,0.00,98,222.70,6.01,-0.10,98,222.10,7.00,-0.15,99,221.80,6.29,-0.33,97,233.60,3.77,-0.85,92,220.90,3.64,-1.02,90,183.30,3.87,-1.58,88,182.80,3.41,-2.12,70,0.09,0.09,0.08,0.08,0.13,0.10,0.42,1.26,1.07,0.87,2.06
7/2/2016 6:00 AM,225.10,4.79,0.00,98,225.30,4.88,-0.02,99,230.10,5.09,-0.04,99,226.20,5.53,-0.04,98,232.30,6.37,-0.12,99,230.90,7.01,-0.10,99,232.90,7.10,-0.11,98,218.80,5.85,-0.74,92,216.20,6.31,-1.59,79,167.90,4.60,-3.21,76,172.90,4.92,-3.13,67,0.08,0.07,0.08,0.06,0.05,0.04,0.15,0.46,0.65,0.63,0.63
7/2/2016 6:10 AM,231.70,4.80,-0.01,98,236.00,5.32,0.03,99,231.40,5.29,0.00,99,233.20,5.85,-0.02,99,235.90,6.15,-0.03,99,241.10,6.81,-0.13,98,238.10,6.65,-0.34,96,232.30,7.29,-0.59,90,203.80,6.86,-1.33,87,178.90,9.82,-2.27,82,201.60,11.94,-1.86,85,0.07,0.07,0.07,0.06,0.06,0.12,0.24,0.34,0.42,0.39,0.27
7/2/2016 6:20 AM,233.00,4.90,-0.04,98,235.20,5.00,-0.02,99,234.80,5.40,-0.07,99,234.90,5.59,-0.07,99,234.90,5.69,-0.11,99,235.60,7.01,-0.26,98,237.80,6.55,-0.16,95,241.50,8.22,-0.51,89,232.10,6.54,-0.48,88,240.00,6.20,-0.48,90,234.00,7.86,-0.46,92,0.07,0.07,0.05,0.05,0.10,0.17,0.22,0.20,0.28,0.50,0.19
7/2/2016 6:30 AM,236.60,4.78,-0.07,99,236.90,4.66,-0.09,98,239.90,5.42,-0.01,99,236.70,5.88,-0.05,99,235.20,6.27,-0.11,99,239.20,6.47,-0.12,97,238.50,6.59,-0.24,95,239.80,7.71,-0.59,93,240.30,7.04,-0.63,93,234.30,7.62,-0.78,91,233.30,7.46,-0.91,90,0.09,0.09,0.08,0.08,0.16,0.13,0.23,0.26,0.35,0.35,0.32
7/2/2016 6:40 AM,236.70,5.07,-0.02,99,240.30,5.28,-0.05,98,241.30,6.08,-0.10,99,245.60,6.12,-0.07,99,244.10,6.62,-0.13,98,245.30,6.89,-0.08,97,248.80,7.16,-0.08,93,254.60,7.64,-0.18,84,236.70,10.41,-0.87,70,238.60,9.48,-1.17,67,221.80,12.84,-1.75,50,0.08,0.07,0.09,0.06,0.06,0.07,0.10,0.15,0.20,0.21,0.19
7/2/2016 6:50 AM,245.50,5.19,0.04,99,244.70,5.63,0.03,99,245.00,5.71,0.04,98,249.00,6.08,0.04,98,250.90,6.58,0.03,97,252.40,6.33,-0.03,94,261.00,6.73,0.00,93,277.60,6.12,0.04,89,266.70,6.22,0.43,86,266.60,6.30,0.34,85,301.30,3.57,0.18,73,0.08,0.09,0.08,0.09,0.10,0.19,0.15,0.30,0.44,0.35,1.82
7/2/2016 7:00 AM,249.80,4.69,-0.02,98,250.20,5.25,0.01,99,254.00,5.53,-0.01,98,260.30,5.90,0.02,95,268.00,6.30,0.19,92,295.40,6.86,0.54,79,277.90,7.76,0.78,79,306.90,7.22,1.31,57,286.20,10.36,1.01,65,271.40,6.64,2.05,58,267.20,8.81,1.54,58,0.10,0.08,0.10,0.15,0.20,0.30,0.27,0.49,0.23,0.42,0.40
7/2/2016 7:10 AM,246.50,4.11,0.03,99,249.90,4.66,0.06,97,252.60,4.82,0.05,97,261.50,4.99,0.13,96,256.20,6.15,0.26,96,266.70,5.82,0.18,94,286.10,5.87,0.57,93,264.20,5.57,0.71,92,285.20,5.79,0.89,89,261.60,4.82,0.90,91,277.20,5.89,1.43,90,0.11,0.09,0.17,0.25,0.33,0.36,0.40,0.69,0.49,0.85,0.58
7/2/2016 7:20 AM,263.90,4.45,0.08,98,263.60,5.02,0.04,96,263.40,5.27,0.03,98,267.60,5.29,0.06,97,269.90,5.87,0.12,96,273.50,5.42,0.22,96,276.10,5.94,0.18,96,273.50,5.33,0.53,95,293.20,5.34,0.55,93,290.00,4.98,0.75,91,292.00,5.94,0.84,94,0.10,0.08,0.07,0.14,0.28,0.35,0.28,0.51,0.49,0.78,0.67
7/2/2016 7:30 AM,268.40,4.39,0.05,99,272.10,4.95,0.03,96,269.80,5.51,0.01,96,274.60,5.36,0.06,97,275.10,5.60,0.06,98,287.40,6.32,0.08,98,292.90,5.43,0.29,98,299.90,6.78,0.19,98,300.80,5.36,0.44,96,321.50,6.19,0.80,93,356.50,5.84,1.75,90,0.11,0.08,0.10,0.16,0.24,0.28,0.49,0.31,0.55,0.63,1.35
7/2/2016 7:40 AM,267.10,3.63,0.08,99,272.30,4.26,0.04,95,278.00,4.59,0.02,97,282.70,5.14,0.04,97,288.50,5.79,0.07,97,285.60,6.20,-0.03,98,289.80,6.20,-0.01,98,288.90,6.54,0.01,97,296.50,6.93,0.14,96,305.30,6.98,0.33,91,314.80,4.39,0.89,60,0.13,0.10,0.23,0.11,0.21,0.09,0.20,0.15,0.33,0.36,1.03
7/2/2016 7:50 AM,276.60,3.38,0.08,97,276.60,4.15,0.04,95,279.00,4.66,-0.02,98,282.20,4.85,0.02,97,291.70,4.81,0.05,97,290.10,5.76,-0.04,98,292.00,5.92,-0.06,99,297.50,5.69,-0.02,99,304.30,6.62,0.00,97,312.60,6.14,0.83,91,1.60,5.09,2.33,77,0.12,0.09,0.08,0.11,0.21,0.12,0.06,0.14,0.17,0.59,0.68
7/2/2016 8:00 AM,283.00,4.41,0.12,98,280.10,5.08,0.12,98,282.30,5.19,0.13,98,290.10,5.32,0.17,98,296.40,5.86,0.23,97,293.50,6.07,0.09,97,296.60,6.43,0.12,97,305.90,6.16,0.22,96,299.80,4.94,0.52,93,286.50,4.54,1.42,89,335.80,2.39,1.15,68,0.09,0.07,0.07,0.09,0.14,0.16,0.17,0.18,0.60,0.60,2.01
7/2/2016 8:10 AM,283.60,4.27,0.12,98,278.40,4.97,0.13,98,282.80,5.31,0.08,98,285.30,5.44,0.02,97,288.00,5.18,0.04,98,295.40,6.56,-0.01,98,291.80,6.95,-0.09,97,302.10,7.58,0.00,95,301.30,7.90,-0.10,93,307.40,4.90,0.53,89,300.50,5.49,0.47,88,0.10,0.08,0.09,0.09,0.20,0.09,0.07,0.13,0.23,0.58,0.34
7/2/2016 8:20 AM,287.30,4.24,0.07,97,284.90,4.95,0.05,98,288.90,5.21,0.01,98,289.50,5.83,-0.04,99,295.00,6.55,-0.06,99,295.50,6.97,-0.04,99,300.30,7.69,-0.03,99,302.80,8.21,0.05,97,309.00,8.39,0.19,94,306.20,8.44,0.21,91,304.30,6.45,0.51,89,0.12,0.09,0.07,0.07,0.06,0.06,0.05,0.07,0.13,0.13,0.25
7/2/2016 8:30 AM,287.80,4.26,0.03,99,288.00,5.05,0.04,99,288.00,5.90,0.00,99,291.30,6.00,-0.04,99,296.00,6.71,-0.01,99,301.60,7.09,-0.05,100,305.70,7.66,-0.07,99,308.80,8.16,-0.05,97,313.00,8.06,-0.05,94,311.80,8.40,0.00,90,318.00,7.85,0.00,70,0.08,0.07,0.07,0.06,0.05,0.04,0.04,0.05,0.06,0.09,0.16
7/2/2016 8:40 AM,292.00,3.57,0.04,98,285.10,3.91,0.02,99,290.50,4.36,-0.03,99,292.70,4.77,-0.06,99,288.90,4.90,-0.12,99,298.60,5.79,-0.08,99,311.10,5.84,-0.35,98,316.00,5.39,-0.53,95,330.30,2.84,-1.34,91,56.60,2.72,-2.12,90,88.50,2.74,-2.68,77,0.09,0.11,0.13,0.15,0.19,0.11,0.22,0.31,0.57,0.94,1.03
7/2/2016 8:50 AM,297.90,4.39,0.04,99,292.70,4.86,0.09,99,299.90,4.81,0.03,98,301.70,5.73,-0.02,98,300.10,5.85,-0.14,96,307.90,6.69,-0.16,95,309.80,7.10,-0.10,95,312.00,7.43,-0.16,92,324.30,6.15,-0.53,90,322.60,5.09,-0.42,89,357.50,5.53,-0.94,87,0.10,0.12,0.19,0.13,0.21,0.17,0.19,0.27,0.52,0.64,0.55
7/2/2016 9:00 AM,296.90,3.99,0.05,98,296.00,5.37,0.01,98,296.70,5.70,0.02,98,302.00,5.65,0.00,97,309.90,6.27,-0.11,97,308.20,6.94,-0.13,95,311.90,7.55,0.03,90,287.70,3.32,-0.65,67,214.30,7.27,-1.07,44,312.60,2.18,-1.75,37,212.10,11.55,-2.49,46,0.12,0.17,0.14,0.11,0.16,0.16,0.33,0.59,2.79,3.05,0.57
7/2/2016 9:10 AM,306.40,3.69,0.00,99,301.20,4.52,0.01,99,308.70,5.31,-0.04,100,308.40,5.68,-0.04,99,309.60,6.50,-0.03,99,307.90,6.03,-0.33,93,295.10,8.05,-0.52,90,263.00,1.58,-0.03,76,22.10,0.82,0.08,73,215.20,13.88,-0.60,74,190.10,12.70,-1.49,49,0.18,0.16,0.08,0.09,0.06,0.34,0.52,1.54,1.97,0.52,0.49
7/2/2016 9:20 AM,306.20,4.65,0.02,99,307.30,5.55,0.00,99,310.70,5.83,0.02,99,310.30,6.31,0.04,99,316.90,7.26,-0.06,99,313.60,7.90,-0.02,98,311.80,6.84,-0.20,94,262.40,6.24,-0.23,87,310.80,2.40,-1.08,63,107.80,4.96,-1.58,53,233.40,7.23,-1.51,51,0.07,0.06,0.07,0.08,0.08,0.17,0.35,0.66,1.11,2.55,0.92
7/2/2016 9:30 AM,313.00,5.31,0.05,99,316.00,5.94,0.04,99,315.90,6.55,-0.01,99,315.10,6.69,-0.03,99,311.00,6.79,-0.06,99,299.60,6.58,-0.16,96,279.10,5.94,-0.32,92,298.80,1.81,-0.61,90,357.50,4.76,-0.35,87,102.00,5.38,-0.40,85,161.70,9.02,-0.23,79,0.06,0.06,0.05,0.09,0.25,0.34,0.46,1.12,2.25,0.76,0.64
7/2/2016 9:40 AM,312.80,4.81,0.06,99,318.60,5.43,0.07,99,320.90,6.19,0.01,99,321.70,6.80,0.03,99,319.00,6.24,-0.11,97,319.20,6.11,-0.31,94,311.20,6.41,-0.40,89,330.40,4.19,-0.41,69,145.70,3.07,-1.24,69,322.50,2.48,-1.03,50,323.70,3.60,-1.63,40,0.09,0.07,0.14,0.12,0.29,0.44,0.36,0.91,1.12,2.40,0.63
7/2/2016 9:50 AM,315.10,3.81,-0.02,98,314.90,4.36,0.01,98,323.90,4.76,-0.07,98,324.20,5.51,-0.12,98,333.40,6.50,-0.19,96,323.30,5.39,-0.38,95,345.00,6.96,-0.59,93,347.60,5.30,-0.79,93,330.80,6.04,-0.81,93,355.90,3.32,-0.94,90,135.50,2.89,-1.55,88,0.11,0.16,0.20,0.21,0.29,0.50,0.39,0.55,0.54,0.97,8.96
7/2/2016 10:00 AM,309.70,3.37,-0.06,98,328.70,3.30,0.01,98,323.50,4.20,0.08,98,324.70,4.97,0.04,98,328.90,5.49,-0.06,98,322.20,6.70,-0.16,98,326.30,6.25,-0.33,98,327.70,8.32,-0.40,97,333.40,8.68,-0.50,95,321.50,8.55,-0.47,93,306.20,8.61,-1.12,88,0.14,0.26,0.17,0.21,0.21,0.17,0.26,0.24,0.30,0.41,0.53
7/2/2016 10:10 AM,313.80,3.93,0.01,99,316.40,4.53,0.01,98,320.80,5.04,-0.03,98,325.00,5.44,-0.07,97,322.70,6.11,-0.09,99,323.90,7.03,-0.13,97,329.90,7.62,-0.13,98,329.60,8.08,-0.15,98,328.10,9.49,-0.18,97,327.70,9.51,-0.28,96,327.20,9.26,-0.25,94,0.15,0.10,0.08,0.12,0.10,0.13,0.16,0.10,0.13,0.14,0.24
7/2/2016 10:20 AM,313.30,4.45,-0.03,98,320.40,5.35,-0.07,99,324.60,5.80,-0.17,99,318.90,6.53,-0.15,99,328.80,6.96,-0.19,99,329.40,7.81,-0.17,98,330.20,8.61,-0.17,99,325.50,9.41,-0.26,99,332.40,9.10,-0.21,98,330.10,9.66,-0.23,97,319.50,8.92,-0.37,92,0.16,0.14,0.09,0.10,0.08,0.08,0.09,0.10,0.16,0.20,0.44
7/2/2016 10:30 AM,320.00,3.67,-0.01,98,314.20,4.36,-0.13,99,322.90,5.36,-0.18,98,326.00,5.47,-0.30,99,321.80,5.83,-0.33,98,331.20,6.47,-0.34,97,335.90,8.32,-0.28,97,327.30,7.53,-0.45,98,333.60,9.89,-0.48,97,329.20,6.80,-0.29,93,313.30,5.01,-1.35,91,0.12,0.22,0.22,0.25,0.29,0.22,0.11,0.23,0.16,0.69,0.95
7/2/2016 10:40 AM,318.60,3.70,-0.03,97,320.80,4.78,-0.05,98,317.60,5.20,-0.08,98,322.80,5.68,-0.10,98,330.50,6.37,-0.05,99,330.40,7.08,-0.06,99,325.90,7.74,-0.06,99,330.70,8.68,-0.16,99,326.10,9.34,-0.14,98,325.60,9.61,-0.27,95,33.70,6.58,-0.38,74,0.14,0.10,0.12,0.07,0.09,0.10,0.12,0.12,0.11,0.23,0.65
7/2/2016 10:50 AM,323.70,4.10,-0.05,98,318.20,5.18,-0.10,98,317.30,5.32,-0.02,98,318.20,5.79,-0.03,98,323.40,6.57,-0.11,99,326.90,6.94,-0.10,98,322.20,7.47,-0.18,98,329.60,8.69,-0.20,98,329.20,8.70,-0.14,94,338.20,7.08,0.40,61,120.30,11.11,-0.02,49,0.11,0.08,0.11,0.07,0.08,0.12,0.12,0.10,0.14,0.39,0.60
7/2/2016 11:00 AM,301.60,2.19,0.09,99,315.70,3.30,-0.01,98,309.70,4.32,0.02,99,313.50,4.26,-0.02,98,316.00,5.06,-0.05,98,321.30,5.94,-0.01,97,324.70,7.00,0.05,98,328.30,7.90,0.01,98,316.90,6.54,-0.32,92,297.90,8.46,-1.16,62,133.70,5.90,-1.56,33,0.26,0.17,0.12,0.10,0.18,0.06,0.11,0.10,0.35,0.96,0.75
7/2/2016 11:10 AM,301.20,3.32,0.13,98,304.20,3.44,0.04,98,311.00,3.93,-0.03,99,310.50,4.26,-0.09,99,312.20,4.86,-0.07,99,319.30,5.66,-0.05,99,317.00,6.14,-0.05,99,315.90,7.03,-0.01,99,318.40,6.73,-0.25,95,321.80,6.06,-0.05,93,84.30,2.58,0.23,88,0.12,0.12,0.09,0.12,0.12,0.12,0.14,0.15,0.34,0.50,3.03
7/2/2016 11:20 AM,304.30,3.14,0.06,99,311.30,3.74,0.08,98,312.00,4.41,0.04,98,311.10,4.65,-0.06,99,313.20,5.39,-0.02,99,315.80,6.46,-0.03,98,320.00,7.12,-0.12,99,322.10,7.37,-0.14,98,322.00,8.12,-0.17,96,317.30,7.46,-0.32,90,312.30,19.05,-2.03,50,0.12,0.18,0.10,0.12,0.09,0.15,0.13,0.12,0.17,0.26,0.21
7/2/2016 11:30 AM,311.00,3.66,0.01,99,317.00,4.25,0.01,99,314.60,4.59,-0.02,99,319.10,4.64,-0.12,98,318.30,5.33,-0.08,98,322.50,5.82,-0.07,99,324.50,6.22,-0.03,99,320.70,6.37,0.00,99,320.70,7.54,-0.01,96,320.10,7.67,-0.41,91,0.80,7.70,-0.34,58,0.11,0.10,0.09,0.12,0.09,0.11,0.09,0.17,0.16,0.30,0.49
7/2/2016 11:40 AM,315.90,2.86,0.13,98,325.00,3.74,0.11,98,322.70,3.92,0.13,98,322.40,3.69,0.07,97,325.80,5.27,-0.03,96,318.70,5.37,-0.14,95,308.50,5.82,-0.13,95,317.30,6.31,-0.31,93,318.20,7.19,-0.51,92,315.60,7.63,-0.54,91,308.80,7.23,-0.63,80,0.18,0.15,0.15,0.21,0.19,0.17,0.25,0.19,0.22,0.24,0.36
7/2/2016 11:50 AM,325.20,4.77,-0.05,98,327.00,5.55,-0.06,99,323.10,6.31,-0.12,99,324.40,6.05,-0.26,98,326.70,6.60,-0.12,97,314.40,6.40,-0.29,96,307.40,6.28,-0.32,96,293.20,5.40,-0.35,95,280.70,5.47,-0.41,92,308.60,7.70,-0.29,91,316.40,6.31,-0.59,90,0.13,0.11,0.10,0.12,0.16,0.31,0.34,0.48,0.40,0.34,0.67
7/2/2016 12:00 PM,313.50,5.37,0.06,99,321.50,5.72,0.06,99,321.70,6.06,0.03,99,320.40,6.98,-0.02,98,320.70,6.97,0.01,99,321.50,7.54,-0.07,97,323.30,6.34,-0.12,96,323.30,6.23,-0.39,95,312.20,7.06,-0.51,94,325.80,8.92,-0.72,91,309.40,5.90,-0.74,91,0.12,0.11,0.11,0.15,0.11,0.16,0.32,0.43,0.44,0.30,0.44
7/2/2016 12:10 PM,294.80,3.85,0.01,99,306.30,4.53,0.02,99,309.90,5.09,0.01,98,303.00,4.67,-0.02,98,314.00,4.71,-0.18,97,298.80,4.80,-0.34,96,286.40,4.05,-0.29,94,298.20,6.01,-0.46,91,288.10,4.38,-0.75,89,287.20,5.28,-0.69,89,283.40,7.04,-1.06,81,0.20,0.14,0.14,0.26,0.29,0.42,0.54,0.43,0.77,0.55,0.41
7/2/2016 12:20 PM,308.40,4.89,0.14,99,306.80,5.02,0.09,99,304.80,5.17,0.10,99,307.20,4.87,0.10,99,303.70,5.68,-0.13,99,308.80,6.15,-0.08,98,314.70,6.27,0.11,97,311.20,6.32,-0.11,97,312.70,5.69,-0.07,97,324.10,5.57,0.13,95,311.30,4.53,-0.20,93,0.10,0.10,0.12,0.21,0.24,0.19,0.23,0.29,0.29,0.37,0.45
7/2/2016 12:30 PM,309.00,5.58,0.06,99,307.60,5.91,0.00,99,307.70,5.74,0.02,99,306.80,6.04,0.00,99,310.40,6.35,-0.02,98,312.50,6.10,-0.09,98,311.40,5.54,-0.01,96,313.80,6.31,-0.03,96,321.50,7.41,-0.17,95,324.40,7.24,-0.19,94,306.70,6.86,-0.20,92,0.09,0.11,0.09,0.14,0.16,0.23,0.25,0.28,0.26,0.27,0.30